Terminal Aerodrome Forecast
Issued by NWS

Home | Current Version | Previous Version | Text Only | Print | Product List | Glossary On
Versions: 1 2 3 4 5 6 7 8 9 10 11 12 13
000
FTUS42 KTAE 272320
TAFABY
TAF
KABY 272320Z 2800/2824 09006KT P6SM SCT080
      TEMPO 2811/2815 4SM BR BKN020=

USA.gov is the U.S. government's official web portal to all federal, state and local government web resources and services.